Flag for Canada Weather past 2 weeks in Toronto, Ontario, Canada

Now
34 °F

Partly sunny.


Feels Like: 25 °F
Forecast: 32 / 46 °F
Wind: 13 mph from East

Location: Toronto Pearson International Airport


UV Index: 5 (Moderate)

Visibility: 15 mi


Pressure: 30.56 "Hg

Humidity: 60%

Dew point: 21 °F

Location of TorontoLocation

Historic Weather in Toronto

°F

Toronto temperature yesterday

Maximum temperature yesterday: 37 °F (at 3:00 PM)
Minimum temperature yesterday: 21 °F (at 3:00 AM)
Average temperature yesterday: 29 °F

Past Weeks' High & Low Weather Summary

 TemperatureHumidityPressure
High72 °F (Apr 13, 5:00 PM)100% (Apr 4, 12:00 PM)30.56 "Hg (Apr 4, 12:00 PM)
Low21 °F (Apr 16, 3:00 AM)26% (Apr 11, 6:00 PM)29.33 "Hg (Apr 8, 6:00 AM)
Average42 °F65%29.93 "Hg
* Reported Apr 2 7:00 AM — Apr 17 7:00 AM, Toronto, Weather by CustomWeather, © 2014

Note: Actual official high and low records may vary slightly from our data, if they occured in-between our weather recording intervals... More about our weather records

Advertising

Historic Weather Conditions — Data for Previous 24 hours

 ConditionsComfort  
Time TempWeatherWind HumidityBarometerVisibility
7:00 AM
Apr 17
32 °FPassing clouds.12 mph60%30.56 "Hg15 mi
6:00 AM32 °FPassing clouds.9 mph60%30.54 "Hg15 mi
5:00 AM32 °FPassing clouds.14 mph64%30.55 "Hg15 mi
4:00 AM30 °FPassing clouds.6 mph69%30.55 "Hg15 mi
3:00 AM32 °FPassing clouds.9 mph64%30.56 "Hg15 mi
2:00 AM30 °FPassing clouds.7 mph75%30.56 "Hg15 mi
1:00 AM32 °FPassing clouds.9 mph75%30.56 "Hg15 mi
12:00 AM32 °FPassing clouds.6 mph64%30.54 "Hg15 mi
11:00 PM
Apr 16
32 °FPassing clouds.2 mph64%30.55 "Hg15 mi
10:00 PM34 °FPassing clouds.3 mph60%30.56 "Hg15 mi
9:00 PM34 °FPartly sunny.9 mph60%30.54 "Hg15 mi
8:00 PM34 °FPartly sunny.8 mph60%30.51 "Hg15 mi
7:00 PM36 °FPartly sunny.10 mph60%30.50 "Hg15 mi
6:00 PM37 °FPartly sunny.10 mph56%30.50 "Hg15 mi
5:00 PM37 °FBroken clouds.12 mph52%30.49 "Hg15 mi
4:00 PM37 °FBroken clouds.6 mph41%30.49 "Hg15 mi
3:00 PM37 °FBroken clouds.2 mph38%30.49 "Hg15 mi
2:00 PM36 °FBroken clouds.8 mph52%30.51 "Hg15 mi
1:00 PM36 °FPartly sunny.7 mph44%30.51 "Hg15 mi
12:00 PM32 °FPartly sunny.9 mph47%30.50 "Hg15 mi
11:00 AM30 °FPartly sunny.9 mph55%30.50 "Hg15 mi
10:00 AM28 °FPassing clouds.3 mph55%30.47 "Hg15 mi
9:00 AM25 °FSunny.5 mph54%30.46 "Hg15 mi
8:00 AM23 °FPassing clouds.7 mph63%30.44 "Hg15 mi
Weather by CustomWeather, © 2014

See weather overview